TimePDT,TemperatureF,Dew PointF,Humidity,Sea Level PressureIn,VisibilityMPH,Wind Direction,Wind SpeedMPH,Gust SpeedMPH,PrecipitationIn,Events,Conditions,WindDirDegrees,DateUTC
12:51 AM,39.2,37.4,93,30.10,10.0,Calm,Calm,-,0.00,,Overcast,0,2012-10-27 07:51:00
12:56 AM,39.9,37.9,93,30.13,10.0,Calm,Calm,-,0.00,,Overcast,0,2012-10-27 07:56:00
1:56 AM,41.0,39.0,93,30.13,10.0,Calm,Calm,-,N/A,,Overcast,0,2012-10-27 08:56:00
2:23 AM,41.0,39.2,93,30.10,10.0,Calm,Calm,-,N/A,,Overcast,0,2012-10-27 09:23:00
2:45 AM,41.0,37.4,87,30.11,10.0,Calm,Calm,-,N/A,,Overcast,0,2012-10-27 09:45:00
2:56 AM,41.0,37.9,89,30.13,10.0,Calm,Calm,-,N/A,,Overcast,0,2012-10-27 09:56:00
3:56 AM,41.0,37.9,89,30.12,10.0,NE,3.5,-,N/A,,Overcast,40,2012-10-27 10:56:00
4:56 AM,41.0,37.9,89,30.11,10.0,ENE,5.8,-,N/A,,Overcast,60,2012-10-27 11:56:00
5:56 AM,41.0,39.0,93,30.12,10.0,West,3.5,-,N/A,,Overcast,280,2012-10-27 12:56:00
6:56 AM,39.9,37.9,93,30.12,5.0,Calm,Calm,-,N/A,,Scattered Clouds,0,2012-10-27 13:56:00
7:56 AM,41.0,37.9,89,30.11,10.0,Calm,Calm,-,N/A,,Overcast,0,2012-10-27 14:56:00
8:56 AM,43.0,39.0,86,30.12,10.0,ENE,4.6,-,N/A,,Mostly Cloudy,60,2012-10-27 15:56:00
9:56 AM,42.8,41.0,93,30.09,9.0,NNW,3.5,-,N/A,,Partly Cloudy,340,2012-10-27 16:56:00
10:13 AM,42.8,41.0,93,30.09,4.0,Calm,Calm,-,N/A,,Mostly Cloudy,0,2012-10-27 17:13:00
10:35 AM,42.8,39.2,87,30.09,4.0,SW,3.5,-,N/A,,Overcast,230,2012-10-27 17:35:00
10:43 AM,42.8,39.2,87,30.09,7.0,WSW,3.5,-,N/A,,Overcast,240,2012-10-27 17:43:00
10:56 AM,43.0,41.0,93,30.12,7.0,Calm,Calm,-,N/A,,Overcast,0,2012-10-27 17:56:00
11:56 AM,44.6,39.2,81,30.09,9.0,Calm,Calm,-,N/A,Rain,Light Rain,0,2012-10-27 18:56:00
12:56 PM,46.9,42.1,83,30.10,8.0,Calm,Calm,-,0.02,Rain,Light Rain,0,2012-10-27 19:56:00
1:04 PM,46.4,42.8,87,30.07,8.0,ESE,3.5,-,0.00,Rain,Light Rain,110,2012-10-27 20:04:00
1:56 PM,48.0,43.0,83,30.06,10.0,Calm,Calm,-,0.01,Rain,Light Rain,0,2012-10-27 20:56:00
2:56 PM,48.0,42.1,80,30.05,10.0,SW,3.5,-,0.01,Rain,Light Rain,220,2012-10-27 21:56:00
3:56 PM,46.9,42.1,83,30.05,10.0,South,10.4,-,0.02,Rain,Light Rain,170,2012-10-27 22:56:00
4:03 PM,46.4,42.8,87,30.03,9.0,SSE,9.2,-,0.00,Rain,Light Rain,160,2012-10-27 23:03:00
4:19 PM,46.4,42.8,87,30.02,6.0,SE,6.9,-,0.01,Rain,Light Rain,130,2012-10-27 23:19:00
4:56 PM,46.9,43.0,86,30.04,10.0,ESE,6.9,-,0.01,Rain,Light Rain,110,2012-10-27 23:56:00
5:14 PM,46.4,42.8,87,30.00,10.0,ESE,5.8,-,0.00,,Overcast,120,2012-10-28 00:14:00
5:56 PM,46.0,43.0,89,30.01,10.0,East,8.1,-,0.00,,Overcast,100,2012-10-28 00:56:00
6:56 PM,46.9,42.1,83,30.00,10.0,ENE,8.1,-,N/A,,Overcast,70,2012-10-28 01:56:00
7:30 PM,46.4,41.0,81,29.96,10.0,ENE,4.6,-,N/A,,Overcast,60,2012-10-28 02:30:00
7:56 PM,48.0,41.0,77,29.98,10.0,SSE,5.8,-,N/A,,Overcast,150,2012-10-28 02:56:00
8:56 PM,46.9,43.0,86,29.96,9.0,South,4.6,-,0.06,Rain,Light Rain,190,2012-10-28 03:56:00
9:18 PM,46.4,42.8,87,29.94,8.0,Calm,Calm,-,0.03,Rain,Light Rain,0,2012-10-28 04:18:00
9:56 PM,46.9,43.0,86,29.95,9.0,South,4.6,-,0.05,Rain,Light Rain,170,2012-10-28 04:56:00
10:37 PM,46.4,42.8,87,29.92,10.0,Calm,Calm,-,N/A,Rain,Light Rain,0,2012-10-28 05:37:00
10:52 PM,46.4,42.8,87,29.92,8.0,Calm,Calm,-,0.05,Rain,Light Rain,0,2012-10-28 05:52:00
10:56 PM,46.9,44.1,90,29.94,9.0,SSW,4.6,-,0.05,Rain,Light Rain,200,2012-10-28 05:56:00
11:56 PM,50.0,43.0,77,29.89,10.0,South,19.6,24.2,0.04,Rain,Light Rain,170,2012-10-28 06:56:00